Location: Anjeux
(47.8815°N, 6.2076°E)
Time: 03:52:14
(UTC+00:00)

ITUPSAT 1 - Visible Passes

Search period start: 29 November 2021 00:00
Search period end: 09 December 2021 00:00
Orbit: 701 x 712 km, 98.6° (Epoch: 28 November)

Date Brightness Start Highest point End Pass type
(mag) Time Alt. Az. Time Alt. Az. Time Alt. Az.
29 Nov ? 05:19:46 10° ESE 05:23:45 27° ENE 05:27:48 10° N visible
30 Nov ? 04:29:48 10° ENE 04:30:43 10° NE 04:31:39 10° NE visible
30 Nov ? 06:02:52 10° SSE 06:07:34 64° ENE 06:12:20 10° N visible
01 Dec ? 05:10:29 10° ESE 05:14:12 23° ENE 05:17:56 10° N visible
02 Dec ? 05:53:18 10° SE 05:57:56 52° ENE 06:02:36 10° N visible
03 Dec ? 05:01:16 10° ESE 05:04:38 19° ENE 05:08:00 10° NNE visible
04 Dec ? 05:43:49 10° SE 05:48:19 43° ENE 05:52:51 10° N visible
05 Dec ? 04:52:10 10° E 04:55:05 16° ENE 04:58:01 10° NNE visible
05 Dec ? 06:27:29 10° SSE 06:32:16 79° WSW 06:37:06 10° NNW visible
06 Dec ? 05:34:22 10° SE 05:38:42 35° ENE 05:43:03 10° N visible
07 Dec ? 04:43:13 10° E 04:45:33 14° NE 04:47:54 10° NNE visible
07 Dec ? 06:17:49 10° SSE 06:22:36 85° ENE 06:27:26 10° NNW visible
08 Dec ? 05:25:00 10° ESE 05:29:06 29° ENE 05:33:15 10° N visible
